Weather in Novoarkhanhelsk

Ukraine / Kirovohrad Region     48˚40′03″N   30˚49′26″E
temp.,
°C
wind,
m/s
gust,
m/s
humid.,
%
clouds,
%
prec.,
mm/h
press.,
hPa
HPBL,
m
1 december, tue
tue123:00−1˚n5995100 1.4 1027480
02:00−1˚n5996100 2.2 1026478
05:00−1˚nne61096100 0.8 1026514
08:00−1˚nne61095100 1.3 1026508
11:00nne5997100 0.6 1026428
14:00nne5897100 0.9 1025367
17:00ne4798100 0.2 1025335
20:00ne4799100 0.4 1025347
2 december, wed
wed223:00ene3599100 0.1 1026276
02:00ene2499100 0.3 1026194
05:00ene3599100 0.1 1025233
08:00ene3599100 0.3 1026243
11:00ene24100100 0.6 1026155
14:00+1˚ne23100100 1.2 1025106
17:00+1˚ene24100100 0.1 1025138
20:00+1˚e35100100 0.3 1025163
3 december, thu
thu323:00+1˚ene35100100 0.1 1025165
02:00+1˚e2310099 0.1 1025122
05:00+1˚ese22100100 0.0 1024104
08:00+1˚sse2399100 0.0 1025133
11:00+2˚sse249599 0.0 1025291
14:00+2˚s459099 0.0 1024509
17:00se3595100 0.0 1023168
20:00+1˚se469076 0.0 1024163
4 december, fri
fri423:00+2˚se4885100 0.0 1023222
02:00+2˚se378796 0.0 1022207
05:00+2˚se4109191 0.0 1022286
08:00+1˚se4119467 0.0 1022296
11:00+4˚se611856 0.0 1022486
14:00+4˚se699011 0.0 1021428
17:00+3˚se61094100 0.0 1021462
20:00+4˚se61191100 0.0 1021532
5 december, sat
sat523:00+4˚se61188100 0.0 1021532
02:00+3˚se61093100 0.0 1021473
05:00+3˚se61094100 0.0 1021496
08:00+4˚ese71293100 0.0 1021437
11:00+4˚se61086100 0.0 1022497
14:00+6˚se6107896 0.0 1022501
17:00+4˚se5128623 0.0 1023417
20:00+3˚se6128745 0.0 1023449